CQ0XBF-11 Weather Reports


time (UTC)temp
C
wind
direction
speed
KPH
gust
KPH
rain 1hr
cm
rain 24hr
cm
rain mn
cm
humidity
%
barometer
mb
20200220082044 4 329 6.4 8.0 0.00 0.00 0.00 82 1020.9
20200220081842 4 11 3.2 8.0 0.00 0.00 0.00 81 1020.9
20200220081640 4 345 0.0 8.0 0.00 0.00 0.00 80 1020.9
20200220081439 5 358 0.0 8.0 0.00 0.00 0.00 79 1020.8
20200220081237 5 337 1.6 8.0 0.00 0.00 0.00 77 1020.8
20200220081035 5 344 3.2 4.8 0.00 0.00 0.00 75 1020.8
20200220080834 6 8 0.0 4.8 0.00 0.00 0.00 73 1020.8
20200220080632 6 344 4.8 4.8 0.00 0.00 0.00 72 1020.7
20200220080431 6 36 0.0 4.8 0.00 0.00 0.00 73 1020.7
20200220080229 6 36 1.6 4.8 0.00 0.00 0.00 74 1020.7
20200220080029 6 36 0.0 4.8 0.00 0.00 0.00 74 1020.7
20200220075826 6 101 1.6 4.8 0.00 0.00 0.00 75 1020.6
20200220075625 6 80 1.6 4.8 0.00 0.00 0.00 75 1020.6
20200220075423 6 94 0.0 1.6 0.00 0.00 0.00 75 1020.6
20200220075222 6 84 0.0 1.6 0.00 0.00 0.00 74 1020.6
20200220074819 6 36 0.0 4.8 0.00 0.00 0.00 75 1020.6
20200220074617 6 64 1.6 4.8 0.00 0.00 0.00 75 1020.5
20200220074415 6 73 0.0 3.2 0.00 0.00 0.00 76 1020.5
20200220074214 6 71 0.0 3.2 0.00 0.00 0.00 77 1020.5
20200220074012 6 106 0.0 4.8 0.00 0.00 0.00 78 1020.5
20200220073811 6 99 0.0 4.8 0.00 0.00 0.00 79 1020.6
20200220073609 5 101 0.0 4.8 0.00 0.00 0.00 80 1020.5
20200220073407 5 139 0.0 4.8 0.00 0.00 0.00 81 1020.6
20200220073206 5 115 1.6 4.8 0.00 0.00 0.00 81 1020.6
20200220073005 5 106 4.8 6.4 0.00 0.00 0.00 80 1020.5
20200220072803 5 60 0.0 6.4 0.00 0.00 0.00 80 1020.5
20200220072601 5 104 1.6 8.0 0.00 0.00 0.00 80 1020.5
20200220072400 5 125 0.0 8.0 0.00 0.00 0.00 79 1020.5
20200220072158 5 81 0.0 8.0 0.00 0.00 0.00 79 1020.5
20200220071957 5 81 0.0 6.4 0.00 0.00 0.00 79 1020.5
20200220071755 5 109 1.6 6.4 0.00 0.00 0.00 80 1020.5
20200220071554 5 91 4.8 9.7 0.00 0.00 0.00 80 1020.5
20200220071352 5 113 3.2 9.7 0.00 0.00 0.00 80 1020.5
20200220071151 5 119 4.8 9.7 0.00 0.00 0.00 80 1020.4
20200220070949 5 120 4.8 8.0 0.00 0.00 0.00 80 1020.5
20200220070747 5 126 4.8 8.0 0.00 0.00 0.00 80 1020.5
20200220070546 5 118 3.2 6.4 0.00 0.00 0.00 80 1020.5
20200220070344 5 126 3.2 6.4 0.00 0.00 0.00 80 1020.5
20200220070142 5 91 3.2 6.4 0.00 0.00 0.00 80 1020.5
20200220065941 6 140 3.2 9.7 0.00 0.00 0.00 80 1020.4
20200220065739 5 127 1.6 9.7 0.00 0.00 0.00 80 1020.5
20200220065538 5 122 3.2 6.4 0.00 0.00 0.00 80 1020.4
20200220065336 5 116 3.2 6.4 0.00 0.00 0.00 80 1020.4
20200220065135 5 120 1.6 6.4 0.00 0.00 0.00 80 1020.4
20200220064933 5 118 3.2 1.6 0.00 0.00 0.00 80 1020.5
20200220064732 6 75 0.0 1.6 0.00 0.00 0.00 79 1020.5
20200220064530 6 75 0.0 4.8 0.00 0.00 0.00 79 1020.4
20200220064329 6 75 0.0 4.8 0.00 0.00 0.00 79 1020.4
20200220064127 6 81 0.0 4.8 0.00 0.00 0.00 79 1020.4
20200220063926 6 123 1.6 8.0 0.00 0.00 0.00 79 1020.4
20200220063724 6 95 0.0 8.0 0.00 0.00 0.00 79 1020.3
20200220063522 6 120 0.0 6.4 0.00 0.00 0.00 79 1020.3
20200220063321 6 77 0.0 6.4 0.00 0.00 0.00 79 1020.5
20200220063119 6 85 0.0 6.4 0.00 0.00 0.00 79 1020.3
20200220062917 6 85 0.0 8.0 0.00 0.00 0.00 78 1020.4
20200220062716 6 149 0.0 8.0 0.00 0.00 0.00 78 1020.4
20200220062514 6 101 0.0 6.4 0.00 0.00 0.00 79 1020.4
20200220062313 6 88 4.8 6.4 0.00 0.00 0.00 79 1020.4
20200220062111 6 66 3.2 6.4 0.00 0.00 0.00 80 1020.3
20200220061910 6 151 1.6 6.4 0.00 0.00 0.00 80 1020.4
20200220061708 6 102 3.2 6.4 0.00 0.00 0.00 80 1020.4
20200220061507 6 203 3.2 3.2 0.00 0.00 0.00 80 1020.4
20200220061305 6 105 0.0 3.2 0.00 0.00 0.00 80 1020.3
20200220061104 6 111 0.0 3.2 0.00 0.00 0.00 81 1020.3
20200220060902 6 132 0.0 3.2 0.00 0.00 0.00 81 1020.4
20200220060701 5 135 0.0 3.2 0.00 0.00 0.00 81 1020.4
20200220060459 6 68 0.0 6.4 0.00 0.00 0.00 81 1020.4
20200220060258 5 127 0.0 6.4 0.00 0.00 0.00 81 1020.4
20200220060055 5 102 0.0 6.4 0.00 0.00 0.00 81 1020.4
20200220055853 5 102 1.6 6.4 0.00 0.00 0.00 81 1020.4
20200220055651 5 133 1.6 6.4 0.00 0.00 0.00 81 1020.4
20200220055450 6 122 1.6 6.4 0.00 0.00 0.00 81 1020.4
20200220055249 5 151 4.8 6.4 0.00 0.00 0.00 81 1020.4
20200220055047 5 108 1.6 8.0 0.00 0.00 0.00 81 1020.3
20200220054845 5 142 3.2 8.0 0.00 0.00 0.00 81 1020.3
20200220054644 5 125 3.2 8.0 0.00 0.00 0.00 81 1020.4
20200220054241 5 130 4.8 11.3 0.00 0.00 0.00 81 1020.4
20200220054039 5 136 6.4 8.0 0.00 0.00 0.00 81 1020.4
20200220053838 5 108 3.2 8.0 0.00 0.00 0.00 82 1020.4
20200220053636 5 140 3.2 8.0 0.00 0.00 0.00 82 1020.4
20200220053435 5 88 3.2 8.0 0.00 0.00 0.00 83 1020.5
20200220053233 5 82 6.4 8.0 0.00 0.00 0.00 84 1020.5
20200220053032 5 64 3.2 4.8 0.00 0.00 0.00 84 1020.5
20200220052830 5 53 0.0 4.8 0.00 0.00 0.00 84 1020.4
20200220052628 5 126 3.2 4.8 0.00 0.00 0.00 84 1020.5
20200220052427 5 80 0.0 3.2 0.00 0.00 0.00 84 1020.6
20200220052225 5 111 0.0 3.2 0.00 0.00 0.00 83 1020.5
20200220052023 5 80 1.6 4.8 0.00 0.00 0.00 83 1020.5
20200220051822 5 192 1.6 4.8 0.00 0.00 0.00 82 1020.5
20200220051620 5 98 1.6 4.8 0.00 0.00 0.00 82 1020.6
20200220051419 5 56 0.0 8.0 0.00 0.00 0.00 82 1020.6
20200220051217 5 129 0.0 8.0 0.00 0.00 0.00 82 1020.6
20200220050814 5 95 1.6 8.0 0.00 0.00 0.00 83 1020.6
20200220050612 5 90 6.4 4.8 0.00 0.00 0.00 84 1020.6
20200220050410 5 78 1.6 4.8 0.00 0.00 0.00 84 1020.5
20200220050209 5 95 0.0 4.8 0.00 0.00 0.00 84 1020.5
20200220050007 5 81 0.0 3.2 0.00 0.00 0.00 84 1020.6
20200220045806 5 59 0.0 3.2 0.00 0.00 0.00 84 1020.6
20200220045604 5 88 1.6 1.6 0.00 0.00 0.00 83 1020.6
20200220045403 5 97 0.0 1.6 0.00 0.00 0.00 81 1020.6
20200220045201 5 8 0.0 1.6 0.00 0.00 0.00 81 1020.7
20200220044959 5 35 0.0 6.4 0.00 0.00 0.00 80 1020.7
20200220044758 5 35 0.0 6.4 0.00 0.00 0.00 80 1020.7
20200220044555 6 84 0.0 4.8 0.00 0.00 0.00 79 1020.7
20200220044150 6 36 0.0 4.8 0.00 0.00 0.00 78 1020.7
20200220043948 6 74 3.2 3.2 0.00 0.00 0.00 78 1020.7
20200220043545 6 109 0.0 4.8 0.00 0.00 0.00 78 1020.7
20200220043344 6 105 3.2 4.8 0.00 0.00 0.00 78 1020.8
20200220043142 6 111 0.0 4.8 0.00 0.00 0.00 78 1020.8
20200220042941 6 95 1.6 6.4 0.00 0.00 0.00 78 1020.7
20200220042739 6 61 0.0 6.4 0.00 0.00 0.00 78 1020.8
20200220042538 6 95 0.0 6.4 0.00 0.00 0.00 79 1020.7
20200220042337 6 74 0.0 6.4 0.00 0.00 0.00 79 1020.7
20200220042134 6 91 3.2 6.4 0.00 0.00 0.00 79 1020.8
20200220041933 6 101 3.2 4.8 0.00 0.00 0.00 79 1020.8
20200220041731 6 111 0.0 4.8 0.00 0.00 0.00 79 1020.8
20200220041530 6 97 3.2 0.0 0.00 0.00 0.00 78 1020.8
20200220041328 6 116 0.0 0.0 0.00 0.00 0.00 78 1020.8
20200220041126 6 116 0.0 0.0 0.00 0.00 0.00 78 1020.9
20200220040925 6 116 0.0 0.0 0.00 0.00 0.00 78 1020.9
20200220040723 6 116 0.0 0.0 0.00 0.00 0.00 78 1020.9
20200220040522 6 116 0.0 0.0 0.00 0.00 0.00 78 1020.9
20200220040320 6 116 0.0 0.0 0.00 0.00 0.00 77 1020.9
20200220040119 6 116 0.0 0.0 0.00 0.00 0.00 77 1020.8
20200220035917 6 116 0.0 3.2 0.00 0.00 0.00 77 1020.8
20200220035716 6 116 0.0 3.2 0.00 0.00 0.00 77 1020.8
20200220035514 6 116 0.0 3.2 0.00 0.00 0.00 77 1020.8
20200220035313 6 116 0.0 3.2 0.00 0.00 0.00 76 1020.8
20200220035111 6 71 0.0 3.2 0.00 0.00 0.00 76 1020.8
20200220034909 6 137 1.6 3.2 0.00 0.00 0.00 76 1020.8
20200220034708 6 130 0.0 3.2 0.00 0.00 0.00 76 1020.8
20200220034508 6 130 1.6 4.8 0.00 0.00 0.00 76 1020.8
20200220034305 6 143 0.0 4.8 0.00 0.00 0.00 75 1020.8
20200220034103 6 140 0.0 3.2 0.00 0.00 0.00 75 1020.8
20200220033901 6 113 1.6 3.2 0.00 0.00 0.00 75 1020.8
20200220033700 6 108 0.0 3.2 0.00 0.00 0.00 75 1020.9
20200220033458 6 94 0.0 0.0 0.00 0.00 0.00 75 1020.9
20200220033257 6 78 3.2 0.0 0.00 0.00 0.00 75 1020.9
20200220033055 6 122 0.0 0.0 0.00 0.00 0.00 75 1020.9
20200220032854 6 122 0.0 0.0 0.00 0.00 0.00 75 1021.0
20200220032652 6 122 0.0 0.0 0.00 0.00 0.00 75 1021.0
20200220032451 6 122 0.0 0.0 0.00 0.00 0.00 75 1021.0
20200220032249 6 122 0.0 0.0 0.00 0.00 0.00 74 1021.0
20200220032048 6 122 0.0 0.0 0.00 0.00 0.00 74 1021.0
20200220031846 7 122 0.0 0.0 0.00 0.00 0.00 74 1021.1
20200220031645 7 122 0.0 0.0 0.00 0.00 0.00 74 1021.1
20200220031443 7 122 0.0 8.0 0.00 0.00 0.00 74 1021.1
20200220031242 7 113 0.0 8.0 0.00 0.00 0.00 74 1021.1
20200220031040 7 112 1.6 6.4 0.00 0.00 0.00 73 1021.1
20200220030838 7 104 3.2 6.4 0.00 0.00 0.00 73 1021.1
20200220030636 7 85 0.0 6.4 0.00 0.00 0.00 73 1021.1
20200220030435 7 112 1.6 8.0 0.00 0.00 0.00 73 1021.1
20200220030233 7 123 1.6 8.0 0.00 0.00 0.00 73 1021.1
20200220030034 7 85 0.0 9.7 0.00 0.00 0.00 73 1021.2
20200220025830 7 105 0.0 9.7 0.00 0.00 0.00 73 1021.2
20200220025629 7 149 4.8 9.7 0.00 0.00 0.00 73 1021.2
20200220025427 7 137 4.8 8.0 0.00 0.00 0.00 73 1021.2
20200220025226 7 125 1.6 8.0 0.00 0.00 0.00 73 1021.2
20200220025024 7 127 3.2 6.4 0.00 0.00 0.00 73 1021.3
20200220024823 7 135 1.6 6.4 0.00 0.00 0.00 73 1021.3
20200220024621 7 101 1.6 6.4 0.00 0.00 0.00 73 1021.2
20200220024420 7 108 1.6 4.8 0.00 0.00 0.00 74 1021.3
20200220024218 7 136 3.2 4.8 0.00 0.00 0.00 74 1021.3
20200220024016 7 71 0.0 3.2 0.00 0.00 0.00 73 1021.3
20200220023815 7 60 0.0 3.2 0.00 0.00 0.00 73 1021.3
20200220023613 7 94 0.0 3.2 0.00 0.00 0.00 73 1021.3
20200220023211 7 67 0.0 3.2 0.00 0.00 0.00 73 1021.4
20200220023008 7 115 0.0 1.6 0.00 0.00 0.00 73 1021.3
20200220022807 7 77 0.0 1.6 0.00 0.00 0.00 72 1021.4
20200220022606 7 77 0.0 0.0 0.00 0.00 0.00 72 1021.4
20200220022404 7 115 0.0 0.0 0.00 0.00 0.00 72 1021.4
20200220022202 7 84 0.0 0.0 0.00 0.00 0.00 72 1021.4
20200220022001 7 84 0.0 3.2 0.00 0.00 0.00 72 1021.4
20200220021759 7 84 0.0 3.2 0.00 0.00 0.00 72 1021.5
20200220021558 7 84 0.0 4.8 0.00 0.00 0.00 72 1021.4
20200220021356 7 84 1.6 4.8 0.00 0.00 0.00 72 1021.4
20200220021155 7 84 0.0 4.8 0.00 0.00 0.00 72 1021.5
20200220020953 7 120 0.0 0.0 0.00 0.00 0.00 72 1021.5
20200220020752 7 97 0.0 0.0 0.00 0.00 0.00 72 1021.5
20200220020550 7 35 0.0 0.0 0.00 0.00 0.00 72 1021.5
20200220020348 7 35 0.0 0.0 0.00 0.00 0.00 72 1021.5
20200220020147 7 35 0.0 0.0 0.00 0.00 0.00 72 1021.5
20200220015945 7 35 0.0 0.0 0.00 0.00 0.00 72 1021.6
20200220015743 7 35 0.0 0.0 0.00 0.00 0.00 72 1021.6
20200220015542 7 35 0.0 0.0 0.00 0.00 0.00 72 1021.6
20200220015340 7 35 0.0 0.0 0.00 0.00 0.00 72 1021.7
20200220015139 7 35 0.0 0.0 0.00 0.00 0.00 72 1021.6
20200220014937 7 35 0.0 0.0 0.00 0.00 0.00 72 1021.6
20200220014736 7 35 0.0 0.0 0.00 0.00 0.00 72 1021.7
20200220014534 7 35 0.0 0.0 0.00 0.00 0.00 72 1021.7
20200220014333 7 35 0.0 0.0 0.00 0.00 0.00 71 1021.7
20200220014131 7 35 0.0 0.0 0.00 0.00 0.00 71 1021.8
20200220013930 7 35 0.0 0.0 0.00 0.00 0.00 71 1021.7
20200220013728 7 35 0.0 0.0 0.00 0.00 0.00 71 1021.7
20200220013527 7 35 0.0 3.2 0.00 0.00 0.00 71 1021.7
20200220013325 7 35 0.0 3.2 0.00 0.00 0.00 71 1021.7
20200220013123 7 35 0.0 3.2 0.00 0.00 0.00 71 1021.7
20200220012922 7 35 0.0 0.0 0.00 0.00 0.00 71 1021.7
20200220012720 7 35 0.0 0.0 0.00 0.00 0.00 71 1021.7
20200220012518 7 35 0.0 0.0 0.00 0.00 0.00 71 1021.7
20200220012317 7 35 0.0 0.0 0.00 0.00 0.00 71 1021.7
20200220012115 7 35 0.0 0.0 0.00 0.00 0.00 71 1021.8
20200220011914 7 35 0.0 0.0 0.00 0.00 0.00 71 1021.7
20200220011712 7 35 0.0 0.0 0.00 0.00 0.00 71 1021.7
20200220011511 7 35 0.0 3.2 0.00 0.00 0.00 71 1021.7
20200220011309 7 35 0.0 3.2 0.00 0.00 0.00 71 1021.7
20200220011108 7 35 0.0 6.4 0.00 0.00 0.00 71 1021.7
20200220010906 7 35 0.0 6.4 0.00 0.00 0.00 71 1021.7
20200220010705 7 123 3.2 6.4 0.00 0.00 0.00 71 1021.7
20200220010503 7 81 0.0 3.2 0.00 0.00 0.00 71 1021.7
20200220010302 7 71 3.2 3.2 0.00 0.00 0.00 71 1021.7
20200220010100 7 109 3.2 6.4 0.00 0.00 0.00 71 1021.7
20200220005858 7 91 0.0 6.4 0.00 0.00 0.00 71 1021.8
20200220005657 7 91 0.0 6.4 0.00 0.00 0.00 71 1021.8
20200220005458 7 74 0.0 1.6 0.00 0.00 0.00 70 1021.8
20200220005254 7 97 3.2 1.6 0.00 0.00 0.00 70 1021.8
20200220005052 7 71 0.0 4.8 0.00 0.00 0.00 70 1021.8
20200220004851 7 71 0.0 4.8 0.00 0.00 0.00 70 1021.8
20200220004649 7 123 0.0 4.8 0.00 0.00 0.00 70 1021.8
20200220004447 7 127 1.6 4.8 0.00 0.00 0.00 70 1021.9
20200220004246 7 105 1.6 4.8 0.00 0.00 0.00 70 1021.9
20200220004044 8 95 0.0 4.8 0.00 0.00 0.00 70 1021.9
20200220003843 7 133 3.2 4.8 0.00 0.00 0.00 70 1021.9
20200220003641 7 142 1.6 4.8 0.00 0.00 0.00 70 1021.9
20200220003440 7 106 0.0 6.4 0.00 0.00 0.00 70 1021.9
20200220003238 8 97 3.2 6.4 0.00 0.00 0.00 70 1021.9
20200220003037 7 95 1.6 6.4 0.00 0.00 0.00 71 1022.0
20200220002835 8 129 1.6 6.4 0.00 0.00 0.00 71 1022.0
20200220002633 7 130 1.6 6.4 0.00 0.00 0.00 71 1021.9
20200220002431 7 130 1.6 4.8 0.00 0.00 0.00 71 1022.0
20200220002229 8 111 3.2 4.8 0.00 0.00 0.00 71 1022.0
20200220001826 8 97 0.0 4.8 0.00 0.00 0.00 71 1022.1
20200220001624 8 87 0.0 4.8 0.00 0.00 0.00 71 1022.1
20200220001423 8 92 0.0 4.8 0.00 0.00 0.00 71 1022.1
20200220001221 8 82 3.2 4.8 0.00 0.00 0.00 71 1022.1
20200220001020 8 113 1.6 3.2 0.00 0.00 0.00 71 1022.2
20200220000818 8 105 1.6 3.2 0.00 0.00 0.00 70 1022.1
20200220000617 8 115 0.0 3.2 0.00 0.00 0.00 71 1022.1
20200220000415 8 63 0.0 3.2 0.00 0.00 0.00 71 1022.2
20200220000214 8 137 1.6 3.2 0.00 0.00 0.00 71 1022.2
20200220000012 8 71 1.6 3.2 0.00 0.00 0.00 71 1022.2
20200219235609 8 84 0.0 4.8 0.00 0.00 0.00 71 1022.2
20200219235407 8 64 0.0 4.8 0.00 0.00 0.00 70 1022.2
20200219235204 8 106 3.2 4.8 0.00 0.00 0.00 70 1022.2
20200219235003 8 98 1.6 6.4 0.00 0.00 0.00 70 1022.2
20200219234801 8 92 1.6 6.4 0.00 0.00 0.00 70 1022.3
20200219234600 8 123 6.4 6.4 0.00 0.00 0.00 69 1022.3
20200219234358 8 92 3.2 6.4 0.00 0.00 0.00 69 1022.3
20200219234156 8 123 3.2 6.4 0.00 0.00 0.00 69 1022.3
20200219233954 8 123 4.8 6.4 0.00 0.00 0.00 69 1022.3
20200219233753 8 80 0.0 6.4 0.00 0.00 0.00 69 1022.3
20200219233551 8 94 0.0 4.8 0.00 0.00 0.00 69 1022.4
20200219233350 8 108 0.0 4.8 0.00 0.00 0.00 69 1022.4
20200219233148 8 82 0.0 4.8 0.00 0.00 0.00 70 1022.4
20200219232947 8 115 0.0 6.4 0.00 0.00 0.00 70 1022.4
20200219232745 8 137 0.0 6.4 0.00 0.00 0.00 70 1022.4
20200219232544 8 61 0.0 6.4 0.00 0.00 0.00 70 1022.4
20200219232342 8 92 1.6 6.4 0.00 0.00 0.00 70 1022.5
20200219232141 8 80 0.0 6.4 0.00 0.00 0.00 70 1022.5
20200219231939 8 113 6.4 6.4 0.00 0.00 0.00 70 1022.5
20200219231737 8 112 1.6 6.4 0.00 0.00 0.00 70 1022.6
20200219231536 8 171 0.0 6.4 0.00 0.00 0.00 70 1022.5
20200219231334 8 135 0.0 6.4 0.00 0.00 0.00 70 1022.5
20200219231132 8 68 0.0 6.4 0.00 0.00 0.00 70 1022.5
20200219230931 8 142 1.6 1.6 0.00 0.00 0.00 69 1022.6
20200219230729 8 136 0.0 1.6 0.00 0.00 0.00 69 1022.6
20200219230529 8 142 0.0 4.8 0.00 0.00 0.00 69 1022.6
20200219230326 8 125 0.0 4.8 0.00 0.00 0.00 69 1022.6
20200219230125 8 136 3.2 4.8 0.00 0.00 0.00 68 1022.6
20200219225923 8 338 0.0 1.6 0.00 0.00 0.00 68 1022.6
20200219225722 8 175 0.0 1.6 0.00 0.00 0.00 67 1022.6
20200219225520 8 33 1.6 1.6 0.00 0.00 0.00 67 1022.6
20200219225319 8 310 0.0 1.6 0.00 0.00 0.00 67 1022.7
20200219225117 8 351 0.0 3.2 0.00 0.00 0.00 66 1022.7
20200219224916 8 351 0.0 3.2 0.00 0.00 0.00 66 1022.7
20200219224714 8 351 0.0 3.2 0.00 0.00 0.00 66 1022.7
20200219224512 8 351 0.0 1.6 0.00 0.00 0.00 65 1022.7
20200219224311 8 351 0.0 1.6 0.00 0.00 0.00 65 1022.7
20200219224109 8 94 0.0 1.6 0.00 0.00 0.00 65 1022.8
20200219223908 9 94 0.0 1.6 0.00 0.00 0.00 65 1022.7
20200219223706 9 81 0.0 1.6 0.00 0.00 0.00 64 1022.7
20200219223504 9 81 0.0 3.2 0.00 0.00 0.00 63 1022.8
20200219223303 10 81 0.0 3.2 0.00 0.00 0.00 63 1022.7
20200219223101 9 81 0.0 6.4 0.00 0.00 0.00 63 1022.7
20200219222900 9 122 3.2 6.4 0.00 0.00 0.00 63 1022.7
20200219222658 9 129 0.0 6.4 0.00 0.00 0.00 63 1022.7
20200219222457 9 56 0.0 3.2 0.00 0.00 0.00 63 1022.7
20200219222256 9 61 0.0 3.2 0.00 0.00 0.00 63 1022.7
20200219222054 9 84 0.0 3.2 0.00 0.00 0.00 63 1022.7
20200219221852 9 84 0.0 3.2 0.00 0.00 0.00 63 1022.7
20200219221651 9 84 1.6 3.2 0.00 0.00 0.00 63 1022.7
20200219221449 9 115 1.6 3.2 0.00 0.00 0.00 63 1022.8
20200219221248 9 98 0.0 3.2 0.00 0.00 0.00 62 1022.8
20200219221046 10 81 0.0 0.0 0.00 0.00 0.00 62 1022.8
20200219220845 10 130 0.0 0.0 0.00 0.00 0.00 61 1022.7
20200219220643 10 130 0.0 0.0 0.00 0.00 0.00 60 1022.7
20200219220441 10 130 0.0 4.8 0.00 0.00 0.00 60 1022.8
20200219220239 10 130 0.0 4.8 0.00 0.00 0.00 60 1022.7
20200219220040 10 130 0.0 4.8 0.00 0.00 0.00 59 1022.7
20200219215836 10 111 1.6 4.8 0.00 0.00 0.00 59 1022.8
20200219215635 10 95 3.2 4.8 0.00 0.00 0.00 59 1022.7
20200219215433 10 125 1.6 4.8 0.00 0.00 0.00 59 1022.7
20200219215232 10 177 1.6 4.8 0.00 0.00 0.00 59 1022.7
20200219215030 10 153 1.6 3.2 0.00 0.00 0.00 59 1022.7
20200219214829 10 132 1.6 3.2 0.00 0.00 0.00 59 1022.7
20200219214627 10 149 1.6 3.2 0.00 0.00 0.00 59 1022.7
20200219214426 10 126 1.6 4.8 0.00 0.00 0.00 59 1022.8
20200219214224 10 132 3.2 4.8 0.00 0.00 0.00 59 1022.8
20200219214023 10 129 3.2 4.8 0.00 0.00 0.00 59 1022.8
20200219213821 10 122 3.2 4.8 0.00 0.00 0.00 59 1022.8
20200219213619 10 142 1.6 4.8 0.00 0.00 0.00 59 1022.8
20200219213418 10 130 1.6 4.8 0.00 0.00 0.00 58 1022.8
20200219213216 10 140 1.6 4.8 0.00 0.00 0.00 58 1022.8
20200219213014 10 120 1.6 4.8 0.00 0.00 0.00 58 1022.8
20200219212813 10 127 1.6 4.8 0.00 0.00 0.00 58 1022.8
20200219212611 10 137 3.2 4.8 0.00 0.00 0.00 58 1022.8
20200219212410 10 146 1.6 4.8 0.00 0.00 0.00 58 1022.8
20200219212208 10 106 3.2 4.8 0.00 0.00 0.00 58 1022.8
20200219212008 10 113 1.6 3.2 0.00 0.00 0.00 58 1022.8
20200219211604 10 109 3.2 4.8 0.00 0.00 0.00 58 1022.8
20200219211402 10 139 1.6 4.8 0.00 0.00 0.00 58 1022.8
20200219211201 10 158 1.6 4.8 0.00 0.00 0.00 57 1022.8
20200219210959 10 140 1.6 3.2 0.00 0.00 0.00 57 1022.9
20200219210758 10 146 1.6 3.2 0.00 0.00 0.00 57 1022.9
20200219210556 10 118 0.0 4.8 0.00 0.00 0.00 56 1022.8
20200219210354 11 164 1.6 4.8 0.00 0.00 0.00 56 1022.8
20200219210153 10 136 1.6 4.8 0.00 0.00 0.00 56 1022.9
20200219205951 10 126 3.2 4.8 0.00 0.00 0.00 56 1022.9
20200219205750 10 133 1.6 4.8 0.00 0.00 0.00 56 1022.9
20200219205548 10 97 0.0 4.8 0.00 0.00 0.00 56 1022.9
20200219205346 10 125 3.2 4.8 0.00 0.00 0.00 56 1022.9
20200219205146 10 136 1.6 4.8 0.00 0.00 0.00 56 1022.9
20200219204943 10 146 1.6 4.8 0.00 0.00 0.00 56 1022.9
20200219204742 10 135 1.6 4.8 0.00 0.00 0.00 56 1022.9
20200219204540 10 157 1.6 6.4 0.00 0.00 0.00 55 1022.9
20200219204339 11 165 3.2 6.4 0.00 0.00 0.00 55 1022.9
20200219204137 11 143 1.6 6.4 0.00 0.00 0.00 55 1022.9
20200219203936 11 146 1.6 4.8 0.00 0.00 0.00 55 1022.9
20200219203734 11 154 1.6 4.8 0.00 0.00 0.00 55 1022.9
20200219203533 11 172 0.0 3.2 0.00 0.00 0.00 55 1022.9
20200219203331 11 118 0.0 3.2 0.00 0.00 0.00 55 1023.0
20200219203130 11 105 0.0 3.2 0.00 0.00 0.00 55 1022.9
20200219202928 11 142 1.6 1.6 0.00 0.00 0.00 55 1023.0
20200219202726 11 116 0.0 1.6 0.00 0.00 0.00 55 1023.0
20200219202525 11 180 0.0 3.2 0.00 0.00 0.00 54 1022.9
20200219202323 11 120 0.0 3.2 0.00 0.00 0.00 54 1023.0
20200219202122 11 160 0.0 3.2 0.00 0.00 0.00 54 1023.0
20200219201920 11 87 0.0 0.0 0.00 0.00 0.00 54 1023.0
20200219201718 11 122 0.0 0.0 0.00 0.00 0.00 54 1023.0
20200219201315 11 87 0.0 0.0 0.00 0.00 0.00 54 1023.0
20200219201113 11 87 0.0 0.0 0.00 0.00 0.00 54 1023.0
20200219200710 11 87 0.0 0.0 0.00 0.00 0.00 53 1023.0
20200219200508 11 87 0.0 3.2 0.00 0.00 0.00 53 1023.0
20200219200105 11 87 0.0 3.2 0.00 0.00 0.00 53 1023.0
20200219195904 11 87 0.0 3.2 0.00 0.00 0.00 53 1023.0
20200219195702 11 118 1.6 3.2 0.00 0.00 0.00 53 1023.0
20200219195500 11 113 0.0 3.2 0.00 0.00 0.00 53 1023.0
20200219195259 11 137 0.0 3.2 0.00 0.00 0.00 53 1022.9
20200219195057 11 112 1.6 4.8 0.00 0.00 0.00 52 1023.0
20200219194855 11 97 0.0 4.8 0.00 0.00 0.00 52 1023.0
20200219194654 11 126 1.6 4.8 0.00 0.00 0.00 52 1023.0
20200219194452 11 125 0.0 4.8 0.00 0.00 0.00 52 1023.0
20200219194251 11 136 1.6 4.8 0.00 0.00 0.00 52 1023.1
20200219194049 11 115 0.0 6.4 0.00 0.00 0.00 52 1023.1
20200219193848 11 120 3.2 6.4 0.00 0.00 0.00 52 1023.1
20200219193646 11 129 1.6 6.4 0.00 0.00 0.00 52 1023.1
20200219193445 11 119 0.0 3.2 0.00 0.00 0.00 52 1023.1
20200219193243 12 126 1.6 3.2 0.00 0.00 0.00 52 1023.1
20200219193042 12 101 0.0 3.2 0.00 0.00 0.00 51 1023.1
20200219192840 11 151 0.0 3.2 0.00 0.00 0.00 51 1023.1
20200219192639 12 108 0.0 3.2 0.00 0.00 0.00 52 1023.1
20200219192437 11 135 0.0 6.4 0.00 0.00 0.00 51 1023.2
20200219192235 12 95 0.0 6.4 0.00 0.00 0.00 51 1023.2
20200219192034 12 92 0.0 6.4 0.00 0.00 0.00 51 1023.2
20200219191832 12 127 3.2 6.4 0.00 0.00 0.00 51 1023.1
20200219191631 12 160 4.8 6.4 0.00 0.00 0.00 51 1023.2
20200219191429 12 136 0.0 3.2 0.00 0.00 0.00 51 1023.1
20200219191227 12 123 1.6 3.2 0.00 0.00 0.00 51 1023.2
20200219191027 12 106 0.0 6.4 0.00 0.00 0.00 51 1023.2
20200219190824 12 139 0.0 6.4 0.00 0.00 0.00 51 1023.2
20200219190623 12 139 1.6 6.4 0.00 0.00 0.00 51 1023.2
20200219190421 12 150 0.0 3.2 0.00 0.00 0.00 51 1023.2
20200219190220 12 126 1.6 3.2 0.00 0.00 0.00 50 1023.2
20200219190018 12 157 1.6 6.4 0.00 0.00 0.00 50 1023.3
20200219185817 12 115 0.0 6.4 0.00 0.00 0.00 50 1023.3
20200219185615 12 105 1.6 4.8 0.00 0.00 0.00 50 1023.3
20200219185414 12 132 1.6 4.8 0.00 0.00 0.00 50 1023.3
20200219185212 12 132 0.0 4.8 0.00 0.00 0.00 49 1023.3
20200219185011 12 150 0.0 1.6 0.00 0.00 0.00 50 1023.3
20200219184809 12 106 0.0 1.6 0.00 0.00 0.00 49 1023.3
20200219184607 12 80 0.0 1.6 0.00 0.00 0.00 49 1023.3
20200219184406 12 80 0.0 1.6 0.00 0.00 0.00 49 1023.3
20200219183800 12 75 0.0 6.4 0.00 0.00 0.00 48 1023.3
20200219183558 12 115 0.0 6.4 0.00 0.00 0.00 48 1023.3
20200219183357 12 135 0.0 6.4 0.00 0.00 0.00 48 1023.3
20200219183155 12 123 4.8 6.4 0.00 0.00 0.00 48 1023.3
20200219182954 12 105 3.2 6.4 0.00 0.00 0.00 48 1023.2
20200219182752 12 74 0.0 6.4 0.00 0.00 0.00 48 1023.2
20200219182551 12 87 3.2 8.0 0.00 0.00 0.00 47 1023.2
20200219182349 13 146 0.0 8.0 0.00 0.00 0.00 47 1023.2
20200219182148 13 129 0.0 8.0 0.00 0.00 0.00 47 1023.2
20200219181946 13 59 3.2 8.0 0.00 0.00 0.00 46 1023.3
20200219181745 13 105 6.4 8.0 0.00 0.00 0.00 46 1023.2
20200219181543 13 81 1.6 8.0 0.00 0.00 0.00 46 1023.2
20200219181341 13 56 4.8 8.0 0.00 0.00 0.00 45 1023.2
20200219181140 13 85 1.6 8.0 0.00 0.00 0.00 45 1023.2
20200219180938 13 123 0.0 0.0 0.00 0.00 0.00 44 1023.2
20200219180736 13 123 0.0 0.0 0.00 0.00 0.00 44 1023.2
20200219180535 14 123 0.0 0.0 0.00 0.00 0.00 43 1023.2
20200219180333 14 123 0.0 0.0 0.00 0.00 0.00 42 1023.2
20200219180132 14 123 0.0 0.0 0.00 0.00 0.00 42 1023.3
20200219175930 14 123 0.0 0.0 0.00 0.00 0.00 41 1023.3
20200219175729 15 123 0.0 0.0 0.00 0.00 0.00 40 1023.3
20200219175527 15 123 0.0 0.0 0.00 0.00 0.00 39 1023.3
20200219175326 15 123 0.0 0.0 0.00 0.00 0.00 39 1023.3
20200219175124 15 123 0.0 0.0 0.00 0.00 0.00 38 1023.3
20200219174923 15 123 0.0 0.0 0.00 0.00 0.00 39 1023.3
20200219174721 15 123 0.0 0.0 0.00 0.00 0.00 39 1023.3
20200219174520 15 123 0.0 0.0 0.00 0.00 0.00 38 1023.4
20200219174318 15 123 0.0 0.0 0.00 0.00 0.00 38 1023.3
20200219174116 15 123 0.0 0.0 0.00 0.00 0.00 38 1023.4
20200219173915 15 123 0.0 0.0 0.00 0.00 0.00 38 1023.4
20200219173713 15 123 0.0 0.0 0.00 0.00 0.00 37 1023.4
20200219173512 15 123 0.0 0.0 0.00 0.00 0.00 37 1023.5
20200219173310 16 123 0.0 0.0 0.00 0.00 0.00 36 1023.4
20200219173108 15 123 0.0 1.6 0.00 0.00 0.00 36 1023.4
20200219172907 15 123 0.0 1.6 0.00 0.00 0.00 36 1023.4
20200219172705 16 123 0.0 1.6 0.00 0.00 0.00 35 1023.5
20200219172504 16 123 0.0 0.0 0.00 0.00 0.00 35 1023.5
20200219172302 16 123 0.0 0.0 0.00 0.00 0.00 35 1023.5
20200219172101 16 123 0.0 3.2 0.00 0.00 0.00 36 1023.5
20200219171859 16 123 0.0 3.2 0.00 0.00 0.00 35 1023.5
20200219171658 15 123 0.0 3.2 0.00 0.00 0.00 35 1023.5
20200219171456 15 123 0.0 4.8 0.00 0.00 0.00 35 1023.5
20200219171255 15 101 0.0 4.8 0.00 0.00 0.00 36 1023.5
20200219171053 16 112 0.0 6.4 0.00 0.00 0.00 36 1023.5
20200219170852 16 112 1.6 6.4 0.00 0.00 0.00 35 1023.5
20200219170650 16 153 0.0 6.4 0.00 0.00 0.00 34 1023.5
20200219170448 16 39 0.0 3.2 0.00 0.00 0.00 33 1023.5
20200219170247 16 113 0.0 3.2 0.00 0.00 0.00 34 1023.5
20200219170045 16 87 0.0 3.2 0.00 0.00 0.00 34 1023.5
20200219165843 16 90 1.6 3.2 0.00 0.00 0.00 33 1023.5
20200219165642 16 92 0.0 3.2 0.00 0.00 0.00 34 1023.5
20200219165440 16 74 0.0 0.0 0.00 0.00 0.00 33 1023.5
20200219165239 16 115 0.0 0.0 0.00 0.00 0.00 33 1023.5
20200219165037 16 115 0.0 3.2 0.00 0.00 0.00 33 1023.6
20200219164836 16 115 0.0 3.2 0.00 0.00 0.00 32 1023.6
20200219164634 16 115 0.0 3.2 0.00 0.00 0.00 35 1023.6
20200219164433 16 115 0.0 4.8 0.00 0.00 0.00 34 1023.6
20200219164231 16 120 0.0 4.8 0.00 0.00 0.00 34 1023.7
20200219164030 16 111 0.0 4.8 0.00 0.00 0.00 34 1023.6
20200219163828 16 132 0.0 4.8 0.00 0.00 0.00 34 1023.7
20200219163629 16 135 1.6 4.8 0.00 0.00 0.00 33 1023.6
20200219163425 16 132 0.0 8.0 0.00 0.00 0.00 32 1023.7
20200219163223 16 106 0.0 8.0 0.00 0.00 0.00 32 1023.7
20200219163022 16 132 0.0 9.7 0.00 0.00 0.00 33 1023.7
20200219162820 16 132 0.0 9.7 0.00 0.00 0.00 33 1023.7
20200219162618 16 147 8.0 9.7 0.00 0.00 0.00 32 1023.8
20200219162417 16 130 0.0 9.7 0.00 0.00 0.00 33 1023.8
20200219162215 16 60 1.6 9.7 0.00 0.00 0.00 33 1023.8
20200219162014 16 126 0.0 9.7 0.00 0.00 0.00 32 1023.8
20200219161812 16 113 0.0 9.7 0.00 0.00 0.00 32 1023.8
20200219161611 16 105 0.0 4.8 0.00 0.00 0.00 31 1023.8
20200219161409 16 105 0.0 4.8 0.00 0.00 0.00 33 1023.8
20200219161208 16 105 1.6 4.8 0.00 0.00 0.00 33 1023.8
20200219161006 16 88 0.0 8.0 0.00 0.00 0.00 34 1023.8
20200219160805 16 94 0.0 8.0 0.00 0.00 0.00 35 1023.9
20200219160603 16 94 0.0 6.4 0.00 0.00 0.00 35 1023.9
20200219155958 16 109 1.6 9.7 0.00 0.00 0.00 34 1023.9
20200219155756 16 125 1.6 9.7 0.00 0.00 0.00 36 1024.0
20200219155553 15 123 0.0 9.7 0.00 0.00 0.00 35 1024.0
20200219155352 16 164 4.8 9.7 0.00 0.00 0.00 33 1024.0
20200219154948 16 102 1.6 8.0 0.00 0.00 0.00 32 1024.0
20200219154747 16 150 0.0 8.0 0.00 0.00 0.00 31 1024.0
20200219154545 17 84 1.6 8.0 0.00 0.00 0.00 31 1024.0
20200219154344 17 84 0.0 8.0 0.00 0.00 0.00 31 1024.2
20200219154142 17 126 1.6 8.0 0.00 0.00 0.00 30 1024.2
20200219153941 17 81 0.0 4.8 0.00 0.00 0.00 30 1024.4
20200219153739 17 143 0.0 4.8 0.00 0.00 0.00 29 1024.4
20200219153538 17 82 0.0 6.4 0.00 0.00 0.00 33 1024.4
20200219153336 17 82 0.0 6.4 0.00 0.00 0.00 34 1024.4
20200219153135 17 82 0.0 6.4 0.00 0.00 0.00 32 1024.4
20200219152933 17 143 0.0 6.4 0.00 0.00 0.00 32 1024.4
20200219152732 17 88 1.6 6.4 0.00 0.00 0.00 30 1024.4
20200219152530 17 95 4.8 9.7 0.00 0.00 0.00 30 1024.4
20200219152328 17 70 0.0 9.7 0.00 0.00 0.00 31 1024.5
20200219152127 17 108 4.8 9.7 0.00 0.00 0.00 30 1024.5
20200219151925 17 56 4.8 11.3 0.00 0.00 0.00 29 1024.6
20200219151723 17 149 3.2 11.3 0.00 0.00 0.00 29 1024.6
20200219151522 17 102 0.0 6.4 0.00 0.00 0.00 30 1024.6
20200219151320 15 102 3.2 6.4 0.00 0.00 0.00 29 1024.6
20200219151119 16 32 0.0 6.4 0.00 0.00 0.00 32 1024.7
20200219150917 16 127 0.0 8.0 0.00 0.00 0.00 31 1024.7
20200219150716 16 116 0.0 8.0 0.00 0.00 0.00 32 1024.7
20200219150514 16 116 0.0 8.0 0.00 0.00 0.00 33 1024.7
20200219150313 16 135 0.0 8.0 0.00 0.00 0.00 33 1024.7
20200219150111 15 115 0.0 9.7 0.00 0.00 0.00 34 1024.8
20200219145910 15 104 1.6 9.7 0.00 0.00 0.00 33 1024.8
20200219145708 15 146 3.2 9.7 0.00 0.00 0.00 32 1024.9
20200219145507 15 122 3.2 6.4 0.00 0.00 0.00 30 1024.9
20200219145305 15 151 0.0 6.4 0.00 0.00 0.00 34 1024.8
20200219145103 15 116 1.6 11.3 0.00 0.00 0.00 32 1024.9
20200219144902 15 18 0.0 11.3 0.00 0.00 0.00 33 1024.9
20200219144700 16 18 0.0 11.3 0.00 0.00 0.00 32 1025.0
20200219144458 16 98 1.6 6.4 0.00 0.00 0.00 30 1025.0
20200219144257 17 73 0.0 6.4 0.00 0.00 0.00 33 1025.0
20200219144055 16 73 0.0 3.2 0.00 0.00 0.00 35 1025.1
20200219143854 16 73 0.0 3.2 0.00 0.00 0.00 34 1025.1
20200219143652 16 73 0.0 3.2 0.00 0.00 0.00 33 1025.2
20200219143451 16 87 0.0 9.7 0.00 0.00 0.00 33 1025.2
20200219143249 16 97 0.0 9.7 0.00 0.00 0.00 34 1025.3
20200219143048 16 97 0.0 4.8 0.00 0.00 0.00 34 1025.3
20200219142846 16 122 1.6 4.8 0.00 0.00 0.00 32 1025.4
20200219142645 16 170 0.0 4.8 0.00 0.00 0.00 34 1025.4
20200219142443 16 91 0.0 8.0 0.00 0.00 0.00 35 1025.4
20200219142242 16 91 0.0 8.0 0.00 0.00 0.00 34 1025.4
20200219142040 16 91 0.0 6.4 0.00 0.00 0.00 34 1025.4
20200219141839 16 119 0.0 6.4 0.00 0.00 0.00 35 1025.5
20200219141637 16 119 0.0 6.4 0.00 0.00 0.00 35 1025.5
20200219141435 16 112 0.0 6.4 0.00 0.00 0.00 35 1025.5
20200219141234 15 102 0.0 6.4 0.00 0.00 0.00 35 1025.6
20200219141032 16 164 0.0 8.0 0.00 0.00 0.00 35 1025.6
20200219140830 16 116 1.6 8.0 0.00 0.00 0.00 34 1025.7
20200219140629 16 87 0.0 8.0 0.00 0.00 0.00 35 1025.7
20200219140427 15 127 0.0 6.4 0.00 0.00 0.00 37 1025.8
20200219140226 15 127 1.6 6.4 0.00 0.00 0.00 36 1025.8
20200219140024 15 130 3.2 12.9 0.00 0.00 0.00 37 1025.8
20200219135823 15 88 3.2 12.9 0.00 0.00 0.00 39 1025.9
20200219135621 15 102 1.6 12.9 0.00 0.00 0.00 37 1026.0
20200219135421 14 157 3.2 11.3 0.00 0.00 0.00 37 1026.0
20200219135218 14 113 3.2 11.3 0.00 0.00 0.00 40 1026.0
20200219135017 14 106 4.8 8.0 0.00 0.00 0.00 36 1026.1
20200219134815 15 97 3.2 8.0 0.00 0.00 0.00 38 1026.1
20200219134614 15 85 0.0 6.4 0.00 0.00 0.00 38 1026.2
20200219134412 15 85 0.0 6.4 0.00 0.00 0.00 37 1026.2
20200219134210 15 296 3.2 6.4 0.00 0.00 0.00 37 1026.3
20200219134009 14 11 0.0 9.7 0.00 0.00 0.00 39 1026.3
20200219133807 15 11 0.0 9.7 0.00 0.00 0.00 39 1026.3
20200219133605 14 84 3.2 4.8 0.00 0.00 0.00 37 1026.4
20200219133404 14 125 1.6 4.8 0.00 0.00 0.00 40 1026.3
20200219133202 14 125 0.0 4.8 0.00 0.00 0.00 39 1026.4
20200219133002 13 125 0.0 8.0 0.00 0.00 0.00 39 1026.4
20200219132759 13 90 0.0 8.0 0.00 0.00 0.00 40 1026.4
20200219132558 14 98 0.0 3.2 0.00 0.00 0.00 39 1026.5
20200219132155 14 163 0.0 3.2 0.00 0.00 0.00 39 1026.5
20200219131953 14 122 0.0 8.0 0.00 0.00 0.00 40 1026.5
20200219131752 13 137 0.0 8.0 0.00 0.00 0.00 42 1026.5
20200219131550 13 108 0.0 6.4 0.00 0.00 0.00 42 1026.6
20200219131349 13 143 0.0 6.4 0.00 0.00 0.00 42 1026.7
20200219131147 13 119 1.6 6.4 0.00 0.00 0.00 42 1026.8
20200219130945 13 132 0.0 9.7 0.00 0.00 0.00 42 1026.8
20200219130744 13 168 0.0 9.7 0.00 0.00 0.00 43 1026.8
20200219130543 13 168 0.0 12.9 0.00 0.00 0.00 44 1026.9
20200219130341 13 140 0.0 12.9 0.00 0.00 0.00 44 1026.9
20200219130139 12 149 0.0 12.9 0.00 0.00 0.00 43 1026.9
20200219125937 12 156 0.0 9.7 0.00 0.00 0.00 41 1027.0
20200219125736 13 90 3.2 9.7 0.00 0.00 0.00 43 1027.0
20200219125534 13 130 0.0 8.0 0.00 0.00 0.00 44 1027.1
20200219125333 13 92 6.4 8.0 0.00 0.00 0.00 42 1027.1
20200219124930 13 139 0.0 4.8 0.00 0.00 0.00 43 1027.2
20200219124728 13 147 0.0 4.8 0.00 0.00 0.00 44 1027.2
20200219124527 12 147 0.0 12.9 0.00 0.00 0.00 45 1027.3
20200219124325 13 147 0.0 12.9 0.00 0.00 0.00 46 1027.3
20200219124124 13 154 0.0 12.9 0.00 0.00 0.00 44 1027.4
20200219123922 13 137 1.6 3.2 0.00 0.00 0.00 44 1027.4
20200219123720 13 90 0.0 3.2 0.00 0.00 0.00 44 1027.4
20200219123519 13 111 0.0 6.4 0.00 0.00 0.00 44 1027.5
20200219123318 13 52 0.0 6.4 0.00 0.00 0.00 49 1027.5
20200219123116 13 170 0.0 8.0 0.00 0.00 0.00 47 1027.5
20200219122914 12 130 0.0 8.0 0.00 0.00 0.00 46 1027.5
20200219122712 12 81 0.0 8.0 0.00 0.00 0.00 47 1027.6
20200219122511 12 127 1.6 9.7 0.00 0.00 0.00 48 1027.6
20200219122309 12 144 3.2 9.7 0.00 0.00 0.00 45 1027.7
20200219122108 12 151 0.0 12.9 0.00 0.00 0.00 47 1027.7
20200219121906 12 153 0.0 12.9 0.00 0.00 0.00 48 1027.7
20200219121705 12 115 0.0 12.9 0.00 0.00 0.00 48 1027.8
20200219121503 12 171 1.6 12.9 0.00 0.00 0.00 48 1027.9
20200219121302 12 82 9.7 12.9 0.00 0.00 0.00 48 1027.9
20200219121100 12 104 1.6 8.0 0.00 0.00 0.00 47 1027.9
20200219120859 12 151 8.0 8.0 0.00 0.00 0.00 47 1028.0
20200219120657 12 147 1.6 8.0 0.00 0.00 0.00 49 1028.0
20200219120455 12 147 0.0 3.2 0.00 0.00 0.00 49 1028.1
20200219120254 12 66 3.2 3.2 0.00 0.00 0.00 49 1028.1
20200219120052 12 56 0.0 11.3 0.00 0.00 0.00 49 1028.2
20200219115851 12 56 0.0 11.3 0.00 0.00 0.00 50 1028.2
20200219115649 12 185 0.0 11.3 0.00 0.00 0.00 49 1028.2
20200219115447 12 216 0.0 11.3 0.00 0.00 0.00 50 1028.3
20200219115246 12 136 3.2 11.3 0.00 0.00 0.00 51 1028.3
20200219115044 11 132 0.0 8.0 0.00 0.00 0.00 49 1028.3
20200219114843 11 102 1.6 8.0 0.00 0.00 0.00 50 1028.4
20200219114642 11 151 4.8 8.0 0.00 0.00 0.00 52 1028.4
20200219114440 11 130 3.2 14.5 0.00 0.00 0.00 51 1028.4
20200219114238 11 151 6.4 14.5 0.00 0.00 0.00 51 1028.4
20200219113834 11 143 0.0 14.5 0.00 0.00 0.00 51 1028.5
20200219113633 11 104 1.6 14.5 0.00 0.00 0.00 50 1028.5
20200219113230 11 109 12.9 14.5 0.00 0.00 0.00 51 1028.5
20200219113028 11 147 0.0 11.3 0.00 0.00 0.00 51 1028.5
20200219112625 11 133 8.0 11.3 0.00 0.00 0.00 52 1028.6
20200219112424 11 85 4.8 14.5 0.00 0.00 0.00 51 1028.6
20200219112221 11 144 1.6 14.5 0.00 0.00 0.00 52 1028.6
20200219112020 11 122 6.4 22.5 0.00 0.00 0.00 51 1028.6
20200219111818 10 172 3.2 22.5 0.00 0.00 0.00 51 1028.7
20200219111617 11 115 3.2 20.9 0.00 0.00 0.00 50 1028.6
20200219111415 10 164 12.9 20.9 0.00 0.00 0.00 52 1028.7
20200219111214 11 165 11.3 20.9 0.00 0.00 0.00 52 1028.6
20200219111012 10 125 6.4 20.9 0.00 0.00 0.00 52 1028.6
20200219110811 10 111 6.4 20.9 0.00 0.00 0.00 52 1028.7
20200219110609 10 122 6.4 14.5 0.00 0.00 0.00 53 1028.7
20200219110408 10 164 8.0 14.5 0.00 0.00 0.00 52 1028.7
20200219110206 10 133 0.0 14.5 0.00 0.00 0.00 54 1028.8
20200219110005 10 123 1.6 17.7 0.00 0.00 0.00 55 1028.8
20200219105803 10 147 4.8 17.7 0.00 0.00 0.00 54 1028.9
20200219105601 10 149 6.4 9.7 0.00 0.00 0.00 53 1028.9
20200219105159 10 144 6.4 9.7 0.00 0.00 0.00 57 1029.0
20200219104956 10 147 0.0 16.1 0.00 0.00 0.00 59 1029.0
20200219104755 10 154 4.8 16.1 0.00 0.00 0.00 57 1029.1
20200219104553 10 120 0.0 9.7 0.00 0.00 0.00 54 1029.1
20200219104353 10 91 8.0 9.7 0.00 0.00 0.00 58 1029.1
20200219104150 10 98 4.8 9.7 0.00 0.00 0.00 57 1029.2
20200219103949 10 136 4.8 9.7 0.00 0.00 0.00 60 1029.2
20200219103747 9 142 1.6 9.7 0.00 0.00 0.00 60 1029.3
20200219103546 9 87 9.7 8.0 0.00 0.00 0.00 60 1029.3
20200219103344 9 109 6.4 8.0 0.00 0.00 0.00 62 1029.3
20200219103143 9 329 0.0 8.0 0.00 0.00 0.00 62 1029.3
20200219102941 8 187 1.6 8.0 0.00 0.00 0.00 62 1029.4
20200219102740 8 153 0.0 8.0 0.00 0.00 0.00 62 1029.4
20200219102538 8 194 0.0 6.4 0.00 0.00 0.00 63 1029.4
20200219102336 8 194 0.0 6.4 0.00 0.00 0.00 63 1029.4
20200219102135 8 130 0.0 6.4 0.00 0.00 0.00 63 1029.4
20200219101933 8 143 4.8 1.6 0.00 0.00 0.00 65 1029.4
20200219101732 8 67 0.0 1.6 0.00 0.00 0.00 65 1029.5
20200219101530 7 122 0.0 8.0 0.00 0.00 0.00 67 1029.5
20200219101328 7 122 0.0 8.0 0.00 0.00 0.00 69 1029.6
20200219101127 7 60 0.0 8.0 0.00 0.00 0.00 67 1029.6
20200219100925 7 104 4.8 8.0 0.00 0.00 0.00 68 1029.5
20200219100724 7 81 3.2 8.0 0.00 0.00 0.00 67 1029.6
20200219100522 7 135 0.0 8.0 0.00 0.00 0.00 69 1029.6
20200219100321 7 80 3.2 8.0 0.00 0.00 0.00 69 1029.5
20200219100119 7 120 8.0 8.0 0.00 0.00 0.00 70 1029.6
20200219095918 7 106 1.6 4.8 0.00 0.00 0.00 72 1029.6
20200219095716 7 95 1.6 4.8 0.00 0.00 0.00 72 1029.6
20200219095515 6 98 0.0 4.8 0.00 0.00 0.00 72 1029.7
20200219095313 6 125 0.0 4.8 0.00 0.00 0.00 73 1029.6
20200219095112 6 125 0.0 0.0 0.00 0.00 0.00 73 1029.7
20200219094910 6 102 0.0 0.0 0.00 0.00 0.00 73 1029.7
20200219094708 6 317 0.0 0.0 0.00 0.00 0.00 73 1029.7
20200219094507 6 317 0.0 0.0 0.00 0.00 0.00 74 1029.7
20200219094305 6 317 0.0 0.0 0.00 0.00 0.00 75 1029.7
20200219094103 6 317 0.0 0.0 0.00 0.00 0.00 75 1029.7
20200219093902 6 317 0.0 0.0 0.00 0.00 0.00 75 1029.7
20200219093701 6 317 0.0 0.0 0.00 0.00 0.00 75 1029.7
20200219093459 6 317 0.0 1.6 0.00 0.00 0.00 75 1029.6
20200219093257 6 317 0.0 1.6 0.00 0.00 0.00 75 1029.7
20200219093056 6 317 0.0 1.6 0.00 0.00 0.00 75 1029.7
20200219092854 6 317 0.0 1.6 0.00 0.00 0.00 75 1029.6
20200219092653 6 319 0.0 1.6 0.00 0.00 0.00 75 1029.6
20200219092451 6 125 0.0 3.2 0.00 0.00 0.00 75 1029.5
20200219092250 6 125 0.0 3.2 0.00 0.00 0.00 75 1029.5
20200219092048 6 125 0.0 1.6 0.00 0.00 0.00 76 1029.4
20200219091847 5 97 0.0 1.6 0.00 0.00 0.00 77 1029.4
20200219091645 5 97 3.2 1.6 0.00 0.00 0.00 77 1029.4
20200219091443 5 97 0.0 8.0 0.00 0.00 0.00 77 1029.4
20200219091242 5 97 0.0 8.0 0.00 0.00 0.00 77 1029.4
20200219091040 5 97 0.0 8.0 0.00 0.00 0.00 78 1029.3
20200219090838 5 160 1.6 8.0 0.00 0.00 0.00 78 1029.4
20200219090637 5 320 1.6 8.0 0.00 0.00 0.00 78 1029.3
20200219090436 5 102 0.0 4.8 0.00 0.00 0.00 79 1029.3
20200219090234 5 109 0.0 4.8 0.00 0.00 0.00 78 1029.3
20200219090035 5 109 0.0 9.7 0.00 0.00 0.00 79 1029.3
20200219085831 5 109 3.2 9.7 0.00 0.00 0.00 79 1029.2
20200219085629 5 156 3.2 9.7 0.00 0.00 0.00 78 1029.3
20200219085428 5 322 0.0 6.4 0.00 0.00 0.00 77 1029.3
20200219085226 5 322 3.2 6.4 0.00 0.00 0.00 77 1029.3
20200219085025 5 313 1.6 8.0 0.00 0.00 0.00 75 1029.2
20200219084823 5 326 0.0 8.0 0.00 0.00 0.00 75 1029.2
20200219084622 5 1 0.0 8.0 0.00 0.00 0.00 74 1029.1
20200219084420 5 1 0.0 4.8 0.00 0.00 0.00 74 1029.1
20200219084218 5 11 1.6 4.8 0.00 0.00 0.00 73 1029.0
20200219084017 5 102 0.0 3.2 0.00 0.00 0.00 71 1029.0
20200219083815 5 102 0.0 3.2 0.00 0.00 0.00 72 1028.9
20200219083614 5 102 0.0 4.8 0.00 0.00 0.00 73 1028.8
20200219083412 5 102 0.0 4.8 0.00 0.00 0.00 73 1028.7
20200219083210 5 102 1.6 4.8 0.00 0.00 0.00 73 1028.7
20200219083009 5 68 0.0 8.0 0.00 0.00 0.00 74 1028.6
20200219082807 5 106 0.0 8.0 0.00 0.00 0.00 74 1028.6
20200219082606 5 101 1.6 11.3 0.00 0.00 0.00 73 1028.6
20200219082404 5 91 0.0 11.3 0.00 0.00 0.00 73 1028.6